Terminal Aerodrome Forecast
Issued by NWS Flagstaff, AZ

Home | Current Version | Previous Version | Text Only | Print | Product List | Glossary On
Versions: 1 2 3 4 5 6 7 8 9 10 11 12 13 14 15 16 17 18 19 20 21 22 23 24 25 26 27 28
000
FTUS45 KFGZ 192338
TAFINW
TAF
KINW 192338Z 2000/2024 10008KT P6SM FEW200
     FM200200 19006KT P6SM FEW200
     FM200800 13008KT P6SM FEW200
     FM201600 20020G30KT P6SM FEW200=

USA.gov is the U.S. government's official web portal to all federal, state and local government web resources and services.